TimeEDT,TemperatureF,Dew PointF,Humidity,Sea Level PressureIn,VisibilityMPH,Wind Direction,Wind SpeedMPH,Gust SpeedMPH,PrecipitationIn,Events,Conditions,WindDirDegrees,DateUTC
12:56 AM,57.0,39.9,53,29.87,10.0,North,10.4,-,N/A,,Clear,360,2013-05-17 04:56:00
1:56 AM,54.0,39.9,59,29.87,10.0,Calm,Calm,-,N/A,,Clear,0,2013-05-17 05:56:00
2:56 AM,51.1,39.9,66,29.88,10.0,WNW,4.6,-,N/A,,Clear,300,2013-05-17 06:56:00
3:56 AM,50.0,39.9,68,29.90,10.0,NW,6.9,-,N/A,,Clear,310,2013-05-17 07:56:00
4:56 AM,52.0,39.0,61,29.92,10.0,NW,10.4,-,N/A,,Clear,320,2013-05-17 08:56:00
5:56 AM,50.0,39.0,66,29.95,10.0,NW,9.2,-,N/A,,Clear,320,2013-05-17 09:56:00
6:43 AM,51.8,39.2,62,29.95,10.0,NW,9.2,-,N/A,,Partly Cloudy,320,2013-05-17 10:43:00
6:56 AM,51.8,39.2,62,29.96,10.0,NW,11.5,-,N/A,,Partly Cloudy,310,2013-05-17 10:56:00
7:56 AM,53.1,37.9,57,30.02,10.0,NNW,15.0,25.3,N/A,,Clear,340,2013-05-17 11:56:00
8:56 AM,55.9,39.0,53,30.03,10.0,NW,12.7,24.2,N/A,,Clear,320,2013-05-17 12:56:00
9:56 AM,60.8,39.2,45,29.99,10.0,NNW,10.4,-,N/A,,Clear,340,2013-05-17 13:56:00
10:56 AM,62.1,39.9,44,30.05,10.0,NNW,15.0,-,N/A,,Clear,330,2013-05-17 14:56:00
11:56 AM,61.0,39.9,46,30.06,10.0,NNW,11.5,-,N/A,,Mostly Cloudy,330,2013-05-17 15:56:00
12:56 PM,64.0,41.0,43,30.07,10.0,North,12.7,20.7,N/A,,Scattered Clouds,360,2013-05-17 16:56:00
1:56 PM,64.9,39.0,39,30.07,10.0,NW,12.7,21.9,N/A,,Partly Cloudy,320,2013-05-17 17:56:00
2:56 PM,66.0,39.9,38,30.08,10.0,North,9.2,17.3,N/A,,Scattered Clouds,350,2013-05-17 18:56:00
3:56 PM,66.9,37.9,34,30.08,10.0,NNW,11.5,20.7,N/A,,Clear,330,2013-05-17 19:56:00
4:56 PM,68.0,36.0,31,30.09,10.0,North,11.5,23.0,N/A,,Scattered Clouds,360,2013-05-17 20:56:00
5:56 PM,66.9,35.1,31,30.12,10.0,North,9.2,16.1,N/A,,Clear,360,2013-05-17 21:56:00
6:56 PM,64.9,35.1,33,30.14,10.0,North,8.1,-,N/A,,Clear,360,2013-05-17 22:56:00
7:56 PM,61.0,34.0,36,30.16,10.0,NE,4.6,-,N/A,,Scattered Clouds,40,2013-05-17 23:56:00
8:56 PM,55.0,42.1,62,30.20,10.0,ESE,3.5,-,N/A,,Mostly Cloudy,110,2013-05-18 00:56:00
9:56 PM,53.1,42.1,66,30.22,10.0,Calm,Calm,-,N/A,,Clear,0,2013-05-18 01:56:00
10:56 PM,48.9,42.1,77,30.24,10.0,Calm,Calm,-,N/A,,Clear,0,2013-05-18 02:56:00
11:56 PM,46.9,42.1,83,30.25,10.0,Calm,Calm,-,N/A,,Clear,0,2013-05-18 03:56:00